Tracking 23731 objects as of 26-Sep-2021
HD Live streaming from Space Station
objects crossing your sky now

STARLINK-1794

Track STARLINK-1794 now!
10-day predictions
STARLINK-1794 is classified as:


NORAD ID: 46695
Int'l Code: 2020-073AB
Perigee: 270.7 km
Apogee: 277.6 km
Inclination: 53.0 °
Period: 89.8 minutes
Semi major axis: 6645 km
RCS: Unknown
Launch date: October 18, 2020
Source: United States (US)
Launch site: AIR FORCE EASTERN TEST RANGE (AFETR)
aabbcc
Your satellite tracking list
Your tracking list is empty




NASA's NSSDC Master Catalog

Two Line Element Set (TLE):
1 46695U 20073AB  21269.29247627  .01737141  19472-2  29115-2 0  9990
2 46695  53.0499 294.9832 0005136 330.8710  29.1964 16.02675873 53235
Source of the keplerian elements: AFSPC